Spokane, WA
on Friday, November 23, 2012

Friday
Previous Day Next Day
Daily Summary
 ActualAverageRecord
Temperature
Mean Temperature °F 33°F  
Max Temperature 45°F 38°F 60°F (1933)
Min Temperature 32°F 28°F -21°F (1985)
Degree Days
Heating Degree Days 26 32  
Month to date heating degree days 577 643  
Since 1 July heating degree days 1183 1431  
Cooling Degree Days 0 0  
Month to date cooling degree days 0 0  
Year to date cooling degree days 535 450  
Moisture
Dew Point 34°F   
Average Humidity 77    
Maximum Humidity 92    
Minimum Humidity 62    
Precipitation
Precipitation 0.18 in 0.07 in 0.77 in (1892)
Month to date precipitation 2.84 1.71  
Year to date precipitation 18.34 13.67  
Snow
Snow 0.00 in 0.30 in 6.60 in (1955)
Month to date snowfall 5.9 4.7  
Since 1 July snowfall 5.9 4.8  
Since 1 September snowfall 5.9 4.8  
Snow Depth 0.00 in   
Wind
Wind Speed 8 mph   
Max Wind Speed 23 mph   
Max Gust Speed 31 mph   
Visibility 10 miles   
Events Rain   

Key: T is trace of precipitation, MM is missing value
Source: NWS Daily Summary
Time(PST)TemperatureDew PointHumidity Pressure Visibility Wind DirectionWind SpeedGust SpeedPrecipitationEvents Conditions
12:53 AM 34.0°F 30.0°F 85% 30.38 in 10.0 miles ENE 6.9 mph - N/A   Overcast
1:53 AM 34.0°F 30.0°F 85% 30.38 in 10.0 miles ENE 5.8 mph - N/A   Overcast
2:53 AM 34.0°F 30.0°F 85% 30.34 in 10.0 miles NE 6.9 mph - N/A   Overcast
3:53 AM 34.0°F 30.0°F 85% 30.34 in 10.0 miles ENE 4.6 mph - N/A   Overcast
4:53 AM 33.1°F 30.0°F 89% 30.33 in 10.0 miles NNE 5.8 mph - N/A   Mostly Cloudy
5:53 AM 33.1°F 30.0°F 89% 30.32 in 10.0 miles ENE 3.5 mph - N/A   Overcast
6:53 AM 34.0°F 30.0°F 85% 30.30 in 10.0 miles NE 5.8 mph - N/A   Overcast
7:53 AM 34.0°F 30.0°F 85% 30.30 in 10.0 miles ENE 3.5 mph - N/A   Overcast
8:53 AM 35.1°F 30.9°F 85% 30.30 in 10.0 miles NE 4.6 mph - N/A   Overcast
9:53 AM 37.9°F 30.9°F 76% 30.27 in 10.0 miles Calm Calm - N/A   Overcast
10:53 AM 41.0°F 30.9°F 67% 30.26 in 10.0 miles SSE 9.2 mph - N/A   Overcast
11:53 AM 43.0°F 30.9°F 62% 30.24 in 10.0 miles SE 5.8 mph - N/A   Overcast
12:53 PM 42.1°F 34.0°F 73% 30.23 in 10.0 miles East 4.6 mph - N/A   Overcast
1:53 PM 43.0°F 35.1°F 74% 30.19 in 10.0 miles SE 5.8 mph - 0.00 in Rain Light Rain
2:53 PM 45.0°F 33.1°F 63% 30.17 in 10.0 miles South 11.5 mph - 0.00 in   Overcast
3:53 PM 44.1°F 35.1°F 71% 30.16 in 10.0 miles South 6.9 mph - 0.00 in Rain Light Rain
4:53 PM 42.1°F 37.0°F 82% 30.13 in 10.0 miles South 8.1 mph - 0.01 in Rain Light Rain
5:53 PM 41.0°F 37.0°F 86% 30.13 in 10.0 miles South 9.2 mph - 0.02 in Rain Light Rain
6:45 PM 41.0°F 37.4°F 87% 30.08 in 8.0 miles SSE 5.8 mph - 0.06 in Rain Light Rain
6:53 PM 39.9°F 37.0°F 89% 30.13 in 8.0 miles SSE 5.8 mph - 0.07 in Rain Light Rain
7:53 PM 39.9°F 37.0°F 89% 30.09 in 10.0 miles SSE 10.4 mph - 0.03 in Rain Light Rain
8:53 PM 41.0°F 37.9°F 89% 30.07 in 10.0 miles South 12.7 mph 21.9 mph 0.00 in Rain Light Rain
9:10 PM 41.0°F 37.4°F 87% 30.02 in 10.0 miles South 15.0 mph - 0.00 in Rain Light Rain
9:53 PM 42.8°F 39.2°F 87% 30.01 in 10.0 miles South 16.1 mph 25.3 mph N/A Rain Light Rain
10:26 PM 42.8°F 39.2°F 87% 30.02 in 10.0 miles SSW 18.4 mph 31.1 mph 0.01 in Rain Light Rain
10:53 PM 42.1°F 39.9°F 92% 30.04 in 10.0 miles SSW 17.3 mph 27.6 mph 0.02 in Rain Light Rain
11:30 PM 42.8°F 39.2°F 87% 30.03 in 10.0 miles SW 20.7 mph 26.5 mph 0.01 in Rain Light Rain
11:53 PM 42.1°F 41.0°F 96% 30.06 in 10.0 miles SW 19.6 mph 26.5 mph 0.02 in Rain Light Rain
Moon Phase
Nov. 23 Nov. 28 Dec. 06 Dec. 13 Dec. 20
Sunrise:07:07 AM (PST) Moon Rise:01:37 PM (PST)11/23
Sunset:04:05 PM (PST) Moon Set:02:14 AM (PST)11/23

Copyright © 2014 The Weather Underground, Inc.